Stations météo

Publicité
Annecy-Meythet, France (7490): Température de l'air & dewpoint: 19.06.2017 19:00:00 - 25.06.2017 19:00:00 (CEST)Annecy-Meythet, France (7490): Température de l'air 5cm: 19.06.2017 19:00:00 - 25.06.2017 19:00:00 (CEST)Annecy-Meythet, France (7490): Température de l'air -20cm & Température de l'air -100cm: 19.06.2017 19:00:00 - 25.06.2017 19:00:00 (CEST)Annecy-Meythet, France (7490): Vitesse du vent & gusts: 19.06.2017 19:00:00 - 25.06.2017 19:00:00 (CEST)Annecy-Meythet, France (7490): Direction du vent: 19.06.2017 19:00:00 - 25.06.2017 19:00:00 (CEST)Annecy-Meythet, France (7490): reduced air pressure: 19.06.2017 19:00:00 - 25.06.2017 19:00:00 (CEST)Annecy-Meythet, France (7490): visibility: 19.06.2017 19:00:00 - 25.06.2017 19:00:00 (CEST)Annecy-Meythet, France (7490): Quantités de précipitations: 19.06.2017 19:00:00 - 25.06.2017 19:00:00 (CEST)
Date & Time tt [°C] td [°C] tt 5cm [°C] tt -20cm [°C] tt -100cm [°C] ff [km/h] ff [knt] fx [km/h] fx [knt] dd ppp [hPa] vv [km] rr [mm]
25.06.2017 19:00:00 26,1 11,4 32,3 24,3 19,2 11 6 19 11 WNW 1014,1 60 0,0
25.06.2017 18:00:00 26,5 12,2 34,0 24,3 19,2 10 5 21 11 WNW 1014,1 60 0,0
25.06.2017 17:00:00 26,3 13,4 - - - 11 6 24 13 NNW 1014,6 10 -
25.06.2017 16:00:00 26,1 13,2 28,5 24,0 19,1 8 4 20 11 WSW 1015,1 50 0,0
25.06.2017 15:00:00 25,6 13,1 30,1 23,8 19,1 11 6 22 12 WSW 1015,5 47 0,0
25.06.2017 14:00:00 24,9 13,4 28,2 23,6 19,1 9 5 21 12 WSW 1015,9 8 0,0
25.06.2017 13:00:00 23,6 14,6 26,8 23,6 19,1 10 5 18 10 WNW 1016,4 55 0,0
25.06.2017 12:00:00 23,1 14,9 27,1 23,6 19,1 6 4 16 9 WSW 1016,9 56 0,0
25.06.2017 11:00:00 21,8 15,9 22,0 23,6 19,1 3 2 14 8 SW 1017,7 19 0,0
25.06.2017 10:00:00 19,9 14,7 20,7 23,6 19,1 6 4 16 9 W 1018,0 20 0,0
25.06.2017 09:00:00 19,0 15,9 18,6 23,7 19,1 3 1 6 3 WSW 1017,7 31 0,0
25.06.2017 08:00:00 18,3 16,5 17,5 23,8 19,1 2 1 5 3 WSW 1017,5 19 0,0
25.06.2017 07:00:00 17,8 16,3 17,2 23,9 19,1 0 0 5 3 N 1017,1 16 0,0
25.06.2017 06:00:00 17,7 16,2 17,1 24,0 19,1 0 0 7 4 N 1017,2 14 0,0
25.06.2017 05:00:00 17,9 16,2 17,3 24,2 19,1 2 1 6 4 NNE 1017,3 19 0,0
25.06.2017 04:00:00 18,1 16,4 17,5 24,3 19,1 0 0 16 9 N 1017,4 20 0,0
25.06.2017 03:00:00 18,3 16,3 17,5 24,4 19,0 6 3 14 7 N 1017,8 25 0,6
25.06.2017 02:00:00 18,4 16,7 17,7 24,5 19,0 3 2 12 7 E 1018,3 6 0,8
25.06.2017 01:00:00 19,2 16,4 17,4 24,7 19,0 2 1 18 10 N 1017,8 14 1,2
25.06.2017 00:00:00 20,3 15,9 18,2 24,8 19,0 7 4 26 14 ENE 1016,9 19 1,4
24.06.2017 23:00:00 22,7 14,8 21,7 24,8 19,0 10 5 18 10 W 1016,1 20 0,0
24.06.2017 22:00:00 24,7 13,6 22,9 24,8 19,0 3 2 16 9 SSE 1014,6 17 0,0
24.06.2017 21:00:00 25,7 13,2 24,9 24,9 19,0 8 4 17 9 WNW 1014,2 59 0,0
24.06.2017 20:00:00 27,9 15,9 27,9 24,8 19,0 8 5 17 9 SW 1014,1 50 0,0
24.06.2017 19:00:00 29,3 14,3 32,5 24,7 18,9 10 5 16 9 SW 1013,8 19 0,0
24.06.2017 18:00:00 29,8 14,7 36,8 24,6 19,0 11 6 19 10 SW 1013,9 20 0,0
24.06.2017 17:00:00 28,9 16,1 38,2 24,4 19,0 9 5 23 12 SSW 1014,5 19 0,0
24.06.2017 16:00:00 28,5 17,1 33,5 24,2 18,9 13 7 29 16 SW 1015,2 19 0,0
24.06.2017 15:00:00 27,8 17,9 32,5 24,1 18,9 5 3 24 13 S 1015,8 20 0,0
24.06.2017 14:00:00 27,4 17,8 32,6 24,1 18,9 10 5 23 13 SSW 1016,5 19 0,0
24.06.2017 13:00:00 25,9 17,8 29,7 24,1 18,9 10 5 19 11 SSW 1017,2 28 0,0
24.06.2017 12:00:00 24,4 17,9 27,0 24,0 18,9 6 3 16 8 SSW 1018,0 20 0,0
24.06.2017 11:00:00 23,3 17,5 24,2 24,1 18,9 0 0 10 5 N 1018,5 19 0,0
24.06.2017 10:00:00 22,4 17,3 - - - 8 4 15 8 W 1018,9 10 0,0
24.06.2017 09:00:00 22,4 18,0 22,9 24,2 18,9 9 5 14 8 WNW 1018,9 18 0,0
24.06.2017 08:00:00 22,0 17,8 22,2 24,3 18,9 3 2 15 8 WNW 1018,8 17 0,0
24.06.2017 07:00:00 21,2 17,6 20,4 24,3 18,9 0 0 6 4 N 1018,7 16 0,0
24.06.2017 06:00:00 20,8 17,2 19,1 24,4 18,8 3 2 10 5 E 1018,8 17 0,0
24.06.2017 05:00:00 21,4 17,4 19,4 24,6 18,8 7 4 9 5 N 1018,6 17 0,0
24.06.2017 04:00:00 22,5 17,4 20,1 24,7 18,8 7 4 18 10 SSW 1018,7 19 0,0
24.06.2017 03:00:00 23,2 17,4 22,1 24,8 18,8 4 2 15 8 W 1018,8 20 0,0
24.06.2017 02:00:00 23,6 17,1 22,2 24,9 18,8 3 2 19 10 SSE 1018,8 20 0,0
24.06.2017 01:00:00 23,9 17,4 22,9 25,0 18,8 12 6 24 13 NW 1018,5 14 0,0
24.06.2017 00:00:00 25,0 17,7 23,8 25,1 18,8 13 7 24 13 WSW 1018,0 24 0,0
23.06.2017 23:00:00 25,3 18,7 23,7 25,1 18,8 8 5 13 7 W 1017,1 19 0,0
23.06.2017 22:00:00 26,5 19,1 24,4 25,1 18,8 6 3 16 9 W 1016,1 19 0,0
23.06.2017 21:00:00 28,1 19,3 27,1 25,1 18,8 11 6 18 10 WNW 1015,9 26 0,0
23.06.2017 20:00:00 30,7 18,1 30,5 25,0 18,7 8 5 17 9 WNW 1015,2 32 0,0
23.06.2017 19:00:00 32,6 16,4 38,0 24,9 18,7 9 5 17 9 NW 1014,3 37 0,0
23.06.2017 18:00:00 32,9 17,1 38,5 24,7 18,7 11 6 22 12 WSW 1014,8 18 0,0
23.06.2017 17:00:00 32,9 17,9 38,5 24,4 18,7 14 7 26 14 W 1015,1 20 0,0
23.06.2017 16:00:00 33,3 13,9 39,9 24,2 18,7 11 6 24 13 SW 1015,4 8 0,0
23.06.2017 15:00:00 33,5 11,9 38,2 24,0 18,7 12 7 25 13 SW 1015,7 9 0,0
23.06.2017 14:00:00 32,5 13,7 36,1 23,9 18,7 9 5 19 10 SW 1016,2 10 0,0
23.06.2017 13:00:00 30,9 17,9 34,7 23,8 18,7 9 5 17 9 SW 1016,8 24 0,0
23.06.2017 12:00:00 29,6 19,3 31,5 23,8 18,7 7 4 14 8 SW 1017,2 19 0,0
23.06.2017 11:00:00 27,9 18,6 29,8 23,8 18,7 3 2 8 4 N 1017,8 19 0,0
23.06.2017 10:00:00 27,1 17,3 25,9 23,8 18,7 3 2 9 5 ENE 1018,1 19 0,0
23.06.2017 09:00:00 24,7 17,2 24,8 23,9 18,6 2 1 12 6 NE 1018,5 20 0,0
23.06.2017 08:00:00 23,1 16,4 21,5 23,9 18,7 6 3 11 6 N 1018,3 29 0,0
23.06.2017 07:00:00 21,0 16,4 19,7 24,0 18,6 6 4 14 8 ENE 1018,4 20 0,0
23.06.2017 06:00:00 20,4 16,2 19,8 24,1 18,6 6 3 13 7 NE 1018,3 21 0,0
23.06.2017 05:00:00 20,9 16,3 20,0 24,3 18,6 8 4 12 7 NE 1017,8 24 0,0
23.06.2017 04:00:00 21,8 16,5 20,6 24,4 18,6 8 4 16 8 NNE 1017,6 29 0,0
23.06.2017 03:00:00 21,8 16,7 21,1 24,5 18,6 9 5 15 8 ENE 1017,9 24 0,0
23.06.2017 02:00:00 22,5 17,2 21,5 24,6 18,6 8 4 12 6 NNE 1017,6 24 0,0
23.06.2017 01:00:00 23,4 16,9 22,4 24,7 18,6 7 4 14 7 NE 1017,5 27 0,0
23.06.2017 00:00:00 24,1 17,8 23,1 24,8 18,6 8 5 12 7 NNE 1017,0 28 0,0
22.06.2017 23:00:00 25,3 17,7 24,2 24,8 18,6 6 3 14 8 NE 1016,3 31 0,0
22.06.2017 22:00:00 27,5 17,7 25,4 24,9 18,6 5 3 10 5 NE 1015,2 35 0,0
22.06.2017 21:00:00 29,6 18,4 28,1 24,7 18,6 5 3 12 6 N 1014,1 40 0,0
22.06.2017 20:00:00 31,6 16,4 32,7 24,6 18,6 8 4 18 10 SW 1014,1 48 0,0
22.06.2017 19:00:00 32,4 15,8 38,0 24,4 18,6 10 6 19 11 SSW 1013,4 20 0,0
22.06.2017 18:00:00 32,5 15,5 35,1 24,3 18,5 12 7 24 13 SSW 1013,7 52 0,0
22.06.2017 17:00:00 32,9 14,5 39,1 24,1 18,5 13 7 28 15 SSW 1013,7 18 0,0
22.06.2017 16:00:00 32,8 16,2 40,1 23,8 18,5 11 6 25 13 WSW 1014,0 17 0,0
22.06.2017 15:00:00 31,9 17,0 38,6 23,6 18,5 7 4 23 12 SSW 1014,3 20 0,0
22.06.2017 14:00:00 31,3 17,9 34,4 23,5 18,5 10 6 21 12 SSW 1014,8 9 0,0
22.06.2017 13:00:00 30,1 19,2 32,9 23,4 18,5 7 4 16 9 SW 1015,3 15 0,0
22.06.2017 12:00:00 29,0 17,5 31,6 23,3 18,4 7 4 15 8 SSW 1015,7 19 0,0
22.06.2017 11:00:00 27,5 17,4 29,0 23,3 18,5 7 4 16 8 SW 1016,1 29 0,0
22.06.2017 10:00:00 26,3 18,2 27,0 23,4 18,4 7 4 14 7 SSW 1016,4 20 0,0
22.06.2017 09:00:00 25,9 17,5 25,4 23,4 18,4 0 0 8 4 N 1016,3 19 0,0
22.06.2017 08:00:00 22,9 16,9 22,0 23,5 18,4 5 3 13 7 ENE 1016,5 17 0,0
22.06.2017 07:00:00 20,8 16,4 19,6 23,6 18,4 6 4 14 8 NE 1016,8 20 0,0
22.06.2017 06:00:00 20,3 16,3 19,2 23,8 18,4 8 5 16 9 NE 1016,8 21 0,0
22.06.2017 05:00:00 20,5 16,7 19,7 23,9 18,4 8 4 12 7 NE 1016,5 20 0,0
22.06.2017 04:00:00 20,8 16,8 20,0 24,0 18,4 5 3 11 6 NE 1016,6 10 0,0
22.06.2017 03:00:00 22,1 17,2 20,5 24,1 18,4 7 4 12 7 NNE 1016,2 25 0,0
22.06.2017 02:00:00 22,3 17,4 21,3 24,2 18,4 6 3 12 7 NE 1016,2 26 0,0
22.06.2017 01:00:00 23,0 17,9 22,0 24,2 18,4 6 3 15 8 NE 1016,0 25 0,0
22.06.2017 00:00:00 24,4 18,6 23,1 24,3 18,4 6 3 16 9 NE 1015,7 25 0,0
21.06.2017 23:00:00 24,9 19,0 23,5 24,3 18,4 6 4 14 8 N 1015,4 28 0,0
21.06.2017 22:00:00 26,4 19,0 24,7 24,3 18,4 7 4 14 7 NNE 1014,7 31 0,0
21.06.2017 21:00:00 28,9 18,4 27,5 24,3 18,4 6 4 13 7 SW 1013,5 45 0,0
21.06.2017 20:00:00 31,1 17,8 33,1 24,2 18,3 9 5 16 9 WSW 1012,6 19 0,0
21.06.2017 19:00:00 31,9 17,0 36,2 24,0 18,3 10 6 18 10 WNW 1012,0 20 0,0
21.06.2017 18:00:00 32,4 15,4 38,7 23,8 18,4 10 6 21 11 NNW 1011,7 20 0,0
21.06.2017 17:00:00 32,4 13,6 34,8 23,6 18,3 11 6 23 12 N 1011,9 45 0,0
21.06.2017 16:00:00 31,1 15,9 32,5 23,5 18,3 18 10 26 14 N 1012,6 20 0,0
21.06.2017 15:00:00 31,3 16,1 34,2 23,3 18,3 11 6 28 15 NNW 1012,7 43 0,0
21.06.2017 14:00:00 31,5 15,5 33,5 23,1 18,3 11 6 26 14 NNW 1013,2 10 0,0
21.06.2017 13:00:00 29,8 18,3 31,7 23,0 18,3 9 5 19 10 SSW 1014,0 10 0,0
21.06.2017 12:00:00 28,5 18,0 31,1 23,1 18,3 8 4 15 8 WSW 1014,6 8 0,0
21.06.2017 11:00:00 27,4 17,0 28,2 23,1 18,3 0 0 10 5 N 1015,1 19 0,0
21.06.2017 10:00:00 26,3 16,8 25,5 23,2 18,3 0 0 7 4 N 1015,4 19 0,0
21.06.2017 09:00:00 24,3 15,0 24,9 23,3 18,3 4 2 12 6 ESE 1015,9 48 0,0
21.06.2017 08:00:00 21,9 15,3 20,6 23,4 18,3 7 4 11 6 NE 1016,3 20 0,0
21.06.2017 07:00:00 19,4 14,4 17,6 23,5 18,3 6 4 13 7 NE 1016,8 32 0,0
21.06.2017 06:00:00 18,3 14,4 17,4 23,6 18,3 8 4 13 7 NE 1016,8 26 0,0
21.06.2017 05:00:00 19,1 14,6 18,0 23,7 18,3 6 4 11 6 NE 1016,4 29 0,0
21.06.2017 04:00:00 19,6 14,8 18,5 23,8 18,2 6 3 14 8 NE 1016,5 31 0,0
21.06.2017 03:00:00 20,1 15,1 19,0 23,9 18,3 9 5 13 7 NNE 1016,7 30 0,0
21.06.2017 02:00:00 20,4 15,2 19,4 23,9 18,2 6 4 15 8 NE 1017,2 29 0,0
21.06.2017 01:00:00 21,5 16,0 20,3 24,0 18,2 8 4 15 8 NNE 1016,9 35 0,0
21.06.2017 00:00:00 22,2 16,0 21,2 24,0 18,2 7 4 17 9 NE 1016,7 36 0,0
20.06.2017 23:00:00 23,5 16,8 21,9 24,0 18,2 4 2 15 8 NE 1016,5 43 0,0
20.06.2017 22:00:00 24,8 16,5 23,2 24,0 18,2 7 4 12 7 NNE 1015,9 43 0,0
20.06.2017 21:00:00 27,2 17,1 26,0 23,9 18,2 4 2 11 6 N 1014,9 50 0,0
20.06.2017 20:00:00 29,1 14,9 27,4 23,8 18,2 7 4 16 9 SSW 1014,3 58 0,0
20.06.2017 19:00:00 30,7 13,5 32,5 23,6 18,2 10 5 19 10 SW 1013,8 58 0,0
20.06.2017 18:00:00 31,2 15,2 37,3 23,4 18,2 11 6 21 11 SW 1014,1 19 0,0
20.06.2017 17:00:00 31,3 15,3 38,2 23,2 18,2 7 4 23 13 WSW 1014,4 13 0,0
20.06.2017 16:00:00 30,9 14,9 37,5 23,0 18,2 13 7 23 12 SSW 1014,9 15 0,0
20.06.2017 15:00:00 30,2 14,3 34,5 22,8 18,2 10 5 23 12 SW 1015,6 5 0,0
20.06.2017 14:00:00 29,9 14,0 31,9 22,7 18,2 11 6 28 15 SW 1016,3 6 0,0
20.06.2017 13:00:00 29,5 13,3 31,3 22,6 18,2 14 8 29 16 SW 1016,7 19 0,0
20.06.2017 12:00:00 28,3 14,9 30,9 22,6 18,1 10 5 22 12 WSW 1017,3 13 0,0
20.06.2017 11:00:00 27,4 15,7 26,8 22,6 18,1 0 0 8 4 N 1017,5 17 0,0
20.06.2017 10:00:00 25,0 15,6 24,7 22,7 18,1 3 2 6 4 W 1018,0 8 0,0
20.06.2017 09:00:00 23,6 16,4 25,2 22,8 18,1 0 0 7 4 N 1018,5 19 0,0
20.06.2017 08:00:00 21,5 15,1 20,6 23,0 18,1 3 1 12 6 NE 1018,8 19 0,0
20.06.2017 07:00:00 18,1 14,2 16,0 23,1 18,1 4 2 10 5 ENE 1019,6 26 0,0
20.06.2017 06:00:00 16,8 13,7 15,7 23,2 18,1 5 3 11 6 ENE 1019,9 26 0,0
20.06.2017 05:00:00 17,5 13,8 15,8 23,3 18,1 5 3 9 5 NNE 1019,9 31 0,0
20.06.2017 04:00:00 18,1 14,0 16,8 23,4 18,1 4 2 10 6 NE 1019,9 31 0,0
20.06.2017 03:00:00 18,7 14,2 17,4 23,4 18,1 5 3 12 6 NE 1019,8 36 0,0
20.06.2017 02:00:00 19,5 14,3 18,0 23,5 18,1 5 3 16 8 NNE 1019,5 42 0,0
20.06.2017 01:00:00 20,9 14,3 18,6 23,6 18,1 5 3 10 5 NNE 1019,3 51 0,0
20.06.2017 00:00:00 22,1 15,0 20,1 23,6 18,1 5 3 9 5 ENE 1018,9 38 0,0
19.06.2017 23:00:00 24,0 14,1 19,2 23,6 18,1 4 2 8 4 N 1018,3 46 0,0
19.06.2017 22:00:00 25,2 13,7 19,9 23,6 18,1 2 1 9 5 SW 1017,6 18 0,0
19.06.2017 21:00:00 26,7 14,8 25,4 23,4 18,1 8 4 19 10 W 1016,8 17 0,0
19.06.2017 20:00:00 28,8 15,3 31,3 23,4 18,1 12 7 20 11 WSW 1016,1 55 0,0
19.06.2017 19:00:00 29,4 15,5 33,0 23,1 18,1 18 10 24 13 WSW 1016,0 60 0,0

tt = Température de l'air
td = dewpoint
tt 5cm = Température de l'air 5cm
tt -20cm = Température de l'air -20cm
tt -100cm = Température de l'air -100cm
ff = Vitesse du vent
fx = gusts
dd = Direction du vent
ppp = reduced air pressure
vv = visibility
rr = Quantités de précipitations

stations d'obs. à proximité